Weather reports worldwide

Advertisment
Pantelleria, Italy (16470): temperature & dewpoint: 15.06.2018 23:00:00 - 21.06.2018 23:00:00 (CEST)Pantelleria, Italy (16470): wind speed: 15.06.2018 23:00:00 - 21.06.2018 23:00:00 (CEST)Pantelleria, Italy (16470): wind direction: 15.06.2018 23:00:00 - 21.06.2018 23:00:00 (CEST)Pantelleria, Italy (16470): reduced air pressure: 15.06.2018 23:00:00 - 21.06.2018 23:00:00 (CEST)Pantelleria, Italy (16470): visibility: 15.06.2018 23:00:00 - 21.06.2018 23:00:00 (CEST)Pantelleria, Italy (16470): sunshine duration: 15.06.2018 23:00:00 - 21.06.2018 23:00:00 (CEST)
Date & Time tt [°C] td [°C] ff [km/h] ff [kn] dd ppp [hPa] vv [km] sd [min]
21.06.2018 23:00:00 - - - - - - - -
21.06.2018 22:00:00 - - - - - - - -
21.06.2018 21:00:00 - - - - - - - -
21.06.2018 20:00:00 24,0 19,3 16 9 SSW 1016,4 15 60
21.06.2018 19:00:00 25,2 19,4 13 7 SSW 1016,3 15 60
21.06.2018 18:00:00 25,0 19,8 15 8 SSW 1016,5 15 60
21.06.2018 17:00:00 25,4 21,3 11 6 SSE 1016,9 15 60
21.06.2018 16:00:00 25,4 21,3 16 9 SSW 1017,2 15 60
21.06.2018 15:00:00 25,8 20,6 21 11 S 1017,6 20 60
21.06.2018 14:00:00 24,6 20,9 15 8 SSW 1017,8 10 60
21.06.2018 13:00:00 22,0 19,9 8 4 NNE 1018,0 10 48
21.06.2018 12:00:00 22,8 20,7 4 2 WSW 1018,0 10 60
21.06.2018 11:00:00 22,8 20,7 9 5 NW 1018,0 10 60
21.06.2018 10:00:00 21,4 19,2 5 3 SE 1018,1 10 60
21.06.2018 09:00:00 21,2 19,0 8 4 SW 1018,1 7 36
21.06.2018 08:00:00 20,8 18,5 4 2 WSW 1018,1 4,0 0
21.06.2018 07:00:00 18,6 16,4 4 2 ESE 1018,3 4,0 0
21.06.2018 06:00:00 - - - - - - - -
21.06.2018 05:00:00 - - - - - - - -
21.06.2018 04:00:00 - - - - - - - -
21.06.2018 03:00:00 - - - - - - - -
21.06.2018 02:00:00 - - - - - - - -
21.06.2018 01:00:00 - - - - - - - -
21.06.2018 00:00:00 - - - - - - - -
20.06.2018 23:00:00 - - - - - - - -
20.06.2018 22:00:00 - - - - - - - -
20.06.2018 21:00:00 - - - - - - - -
20.06.2018 20:00:00 22,0 19,6 5 3 S 1017,5 7 60
20.06.2018 19:00:00 21,6 19,2 15 8 NE 1017,5 6 42
20.06.2018 18:00:00 21,4 19,0 15 8 E 1017,9 5 0
20.06.2018 17:00:00 20,8 18,2 13 7 NE 1018,5 0,9 0
20.06.2018 16:00:00 20,6 18,2 11 6 NNE 1018,6 0,8 0
20.06.2018 15:00:00 20,8 18,5 15 8 N 1018,3 0,8 0
20.06.2018 14:00:00 21,0 18,8 13 7 NNW 1018,3 2,5 0
20.06.2018 13:00:00 20,4 18,2 16 9 NNW 1018,4 0,4 0
20.06.2018 12:00:00 20,4 18,2 13 7 NW 1018,4 0,2 48
20.06.2018 11:00:00 21,4 19,2 13 7 NNW 1018,1 3,0 18
20.06.2018 10:00:00 20,8 18,5 9 5 N 1017,8 2,5 0
20.06.2018 09:00:00 20,4 18,2 8 4 NNE 1017,2 0,8 0
20.06.2018 08:00:00 19,6 17,5 5 3 NW 1017,1 0,8 0
20.06.2018 07:00:00 19,4 17,2 4 2 NNE 1017,1 0,2 0
20.06.2018 06:00:00 - - - - - - - -
20.06.2018 05:00:00 - - - - - - - -
20.06.2018 04:00:00 - - - - - - - -
20.06.2018 03:00:00 - - - - - - - -
20.06.2018 02:00:00 - - - - - - - -
20.06.2018 01:00:00 - - - - - - - -
20.06.2018 00:00:00 - - - - - - - -
19.06.2018 23:00:00 - - - - - - - -
19.06.2018 22:00:00 - - - - - - - -
19.06.2018 21:00:00 - - - - - - - -
19.06.2018 20:00:00 20,4 18,2 15 8 N 1015,7 0,3 0
19.06.2018 19:00:00 20,4 18,2 13 7 N 1015,6 0,7 0
19.06.2018 18:00:00 20,4 18,2 18 10 N 1015,5 0,6 0
19.06.2018 17:00:00 20,4 18,2 18 10 NNW 1015,8 1,1 0
19.06.2018 16:00:00 20,2 18,0 22 12 NW 1015,7 1,5 0
19.06.2018 15:00:00 20,0 17,8 22 12 NW 1016,1 3,0 0
19.06.2018 14:00:00 19,8 17,6 24 13 NW 1016,1 3,0 0
19.06.2018 13:00:00 19,6 17,4 26 14 NW 1016,1 3,5 0
19.06.2018 12:00:00 19,2 17,0 26 14 NW 1015,9 4,0 0
19.06.2018 11:00:00 19,0 16,8 28 15 NW 1015,8 3,5 0
19.06.2018 10:00:00 19,0 16,8 26 14 NW 1015,7 3,5 0
19.06.2018 09:00:00 18,8 16,4 22 12 NW 1015,7 3,5 0
19.06.2018 08:00:00 18,6 16,4 21 11 NW 1015,2 5 0
19.06.2018 07:00:00 18,4 16,4 21 11 NW 1015,2 6 0
19.06.2018 06:00:00 - - - - - - - -
19.06.2018 05:00:00 - - - - - - - -
19.06.2018 04:00:00 - - - - - - - -
19.06.2018 03:00:00 - - - - - - - -
19.06.2018 02:00:00 - - - - - - - -
19.06.2018 01:00:00 - - - - - - - -
19.06.2018 00:00:00 - - - - - - - -
18.06.2018 23:00:00 - - - - - - - -
18.06.2018 22:00:00 - - - - - - - -
18.06.2018 21:00:00 - - - - - - - -
18.06.2018 20:00:00 19,4 17,5 28 15 NW 1014,0 8 0
18.06.2018 19:00:00 19,8 17,9 22 12 NW 1014,2 8 0
18.06.2018 18:00:00 19,8 18,1 21 11 WNW 1014,4 8 0
18.06.2018 17:00:00 20,2 19,0 28 15 WNW 1014,7 6 0
18.06.2018 16:00:00 20,2 19,0 28 15 WNW 1016,2 8 24
18.06.2018 15:00:00 21,0 20,0 26 14 WNW 1015,6 10 60
18.06.2018 14:00:00 21,6 20,4 28 15 WNW 1015,6 10 48
18.06.2018 13:00:00 21,4 20,2 28 15 WNW 1015,8 10 60
18.06.2018 12:00:00 21,2 19,7 28 15 WNW 1016,0 10 60
18.06.2018 11:00:00 21,0 19,1 31 17 WNW 1016,0 10 48
18.06.2018 10:00:00 20,2 18,3 29 16 WNW 1016,2 10 6
18.06.2018 09:00:00 19,8 17,9 28 15 WNW 1016,0 10 0
18.06.2018 08:00:00 19,2 17,4 29 16 WNW 1016,1 8 0
18.06.2018 07:00:00 19,0 17,2 26 14 WNW 1016,2 7 0
18.06.2018 06:00:00 - - - - - - - -
18.06.2018 05:00:00 - - - - - - - -
18.06.2018 04:00:00 - - - - - - - -
18.06.2018 03:00:00 - - - - - - - -
18.06.2018 02:00:00 - - - - - - - -
18.06.2018 01:00:00 - - - - - - - -
18.06.2018 00:00:00 - - - - - - - -
17.06.2018 23:00:00 - - - - - - - -
17.06.2018 22:00:00 - - - - - - - -
17.06.2018 21:00:00 - - - - - - - -
17.06.2018 20:00:00 20,0 18,1 18 10 NW 1016,2 11 0
17.06.2018 19:00:00 20,0 18,1 28 15 NW 1016,2 11 0
17.06.2018 18:00:00 20,2 18,5 24 13 NW 1016,1 11 30
17.06.2018 17:00:00 21,0 19,5 28 15 NW 1016,5 11 60
17.06.2018 16:00:00 22,0 20,3 28 15 NW 1016,5 12 54
17.06.2018 15:00:00 21,6 19,9 24 13 NW 1016,7 10 48
17.06.2018 14:00:00 21,6 19,9 28 15 NW 1016,7 10 60
17.06.2018 13:00:00 21,2 19,3 28 15 WNW 1016,6 10 60
17.06.2018 12:00:00 21,2 19,3 31 17 NW 1016,5 10 48
17.06.2018 11:00:00 20,6 18,7 24 13 WNW 1016,0 10 0
17.06.2018 10:00:00 19,6 17,7 21 11 WNW 1016,1 10 0
17.06.2018 09:00:00 19,0 17,1 22 12 WNW 1015,9 10 0
17.06.2018 08:00:00 19,0 17,1 22 12 W 1015,4 10 0
17.06.2018 07:00:00 19,0 17,3 24 13 WNW 1015,2 10 0
17.06.2018 06:00:00 - - - - - - - -
17.06.2018 05:00:00 - - - - - - - -
17.06.2018 04:00:00 - - - - - - - -
17.06.2018 03:00:00 - - - - - - - -
17.06.2018 02:00:00 - - - - - - - -
17.06.2018 01:00:00 - - - - - - - -
17.06.2018 00:00:00 - - - - - - - -
16.06.2018 23:00:00 - - - - - - - -
16.06.2018 22:00:00 - - - - - - - -
16.06.2018 21:00:00 - - - - - - - -
16.06.2018 20:00:00 20,0 18,7 21 11 NW 1013,9 11 0
16.06.2018 19:00:00 20,4 19,2 22 12 NW 1013,8 12 48
16.06.2018 18:00:00 21,4 20,0 26 14 NW 1013,7 15 60
16.06.2018 17:00:00 21,4 19,9 28 15 NW 1013,8 15 60
16.06.2018 16:00:00 21,6 19,9 28 15 NW 1014,1 11 60
16.06.2018 15:00:00 21,8 20,1 28 15 WNW 1014,0 11 60
16.06.2018 14:00:00 21,2 19,7 26 14 WNW 1014,0 11 54
16.06.2018 13:00:00 21,0 19,5 29 16 WNW 1014,1 11 60
16.06.2018 12:00:00 21,0 19,3 28 15 WNW 1014,0 11 60
16.06.2018 11:00:00 20,6 18,9 28 15 WNW 1014,0 11 30
16.06.2018 10:00:00 19,8 18,1 22 12 WNW 1013,7 12 12
16.06.2018 09:00:00 19,4 17,7 24 13 WNW 1013,2 11 12
16.06.2018 08:00:00 19,2 17,5 26 14 WNW 1013,0 11 0
16.06.2018 07:00:00 18,4 16,7 24 13 WNW 1012,3 11 0
16.06.2018 06:00:00 - - - - - - - -
16.06.2018 05:00:00 - - - - - - - -
16.06.2018 04:00:00 - - - - - - - -
16.06.2018 03:00:00 - - - - - - - -
16.06.2018 02:00:00 - - - - - - - -
16.06.2018 01:00:00 - - - - - - - -
16.06.2018 00:00:00 - - - - - - - -
15.06.2018 23:00:00 - - - - - - - -

tt = temperature
td = dewpoint
ff = wind speed
dd = wind direction
ppp = reduced air pressure
vv = visibility
sd = sunshine duration

Next stations